CZ-4 DEB, 26143

Orbit data source: Space-Track

CZ-4 DEB, 26143 is space debris in SSO originally from a launch on Thu, 14 Oct 1999 UTC launched from the Taiyaun Space Center, China (TSC). Debris objects in space refer to the collection of defunct objects orbiting the Earth. Examples of debris include non-operational satellites, rocket bodies, and fragments generated from explosions, collisions, or faulty payload assembly.

Loading next visibility...
Identifier
26143, 1999-057AF
Orbit
SSO
Last TLE update
2 days ago
Origin
Manufacturer
Unknown
Mission
Spacecraft
Bus & Motor
Unknown
Mass
Unknown
Launch date (UTC)
1999-10-14 (26 years ago)
Launch vehicle
Unknown
Launch site
Taiyaun Space Center, China (TSC)
Object type
Payload
Rocket body
Debris
Shape & HBR
Unknown
Radar Cross Section
Small (<0.1 m²)

Expand to show TLE details & history

TLE from 2 days ago
0 CZ-4 DEB
1 26143U 99057AF  25198.40555755  .00000220  00000-0  21403-3 0  9994
2 26143  98.9532 187.3715 0475938 255.5492 281.9986 13.47232159242631
Epoch: 2025-07-17T09:44Z
TLE epoch observation values (Epoch: 2025-07-17T09:44:00.172Z)
Latitude
7.68264°
Longitude
-72.88958°
Altitude
1,027.168 km
Speed
7.367 km/s
True Right ascension
00h 34m 19s
True Declination
7° 38' 20"
Sunlit
Object was in daylight at epoch
Visualization orbit readout
Latitude
-80.74069°
Longitude
-178.69692°
Altitude
777.04 km
Speed
7.631 km/s
Apparent Right ascension
23h 30m 33s
Apparent Declination
-66° 47' 41"
Sunlit
Object is in full shadow
Visualization observer readout
Local Sidereal Time
12:25:04
Azimuth
168.567° S
Elevation
-62.062°
Doppler factor
1
Orbital elements
Apogee altitude
1,434.666 km
Perigee altitude
724.771 km
Semi-major axis
7,457.855 km
Eccentricity
0.04759
Inclination
98.9532°
RAAN
187.3715°
Arg. of periapsis
255.5492°
True anomaly
276.60512°
Mean anomaly
281.9986°
Eccentric anomaly
279.30758°
Mean motion
3.36994 °/min
Orbital period
106.83 mins
BSTAR
0.00021403
Loading maneuver chart data...
Loading SW <> Apogee altitude chart data...
Loading historical data...
Loading historical data...
Loading historical data...
Loading historical data...
Loading historical data...
Loading historical data...
Loading historical data...
|